Santa Rosa, CA

3:15 AM PST on December 10, 2019 (GMT -0800)
Sonoma County

Weather History for KSTS - October, 2019

Change the Weather History Date:

Tuesday, October 29, 2019

  Actual Average Record
Temperature  
Mean Temperature 53 °F 58 °F  
Max Temperature 75 °F 72 °F 85 °F (2014)
Min Temperature 30 °F 43 °F 30 °F (2019)
Degree Days  
Heating Degree Days 12    
Month to date heating degree days 141  
Since 1 July heating degree days 177  
Cooling Degree Days 0    
Month to date cooling degree days 29  
Year to date cooling degree days 569  
Growing Degree Days 4 (Base 50)    
Moisture  
Dew Point 22 °F    
Average Humidity 45    
Maximum Humidity 82    
Minimum Humidity 7    
Precipitation  
Precipitation 0.00 in 0.11 in 0.57 in (2010)
Month to date precipitation 0.02 1.81  
Year to date precipitation 38.54 24.34  
Sea Level Pressure  
Sea Level Pressure 29.95 in    
Wind  
Wind Speed 4 mph (NE)    
Max Wind Speed 17 mph    
Max Gust Speed 22 mph    
Visibility 6 miles    
Events      
T = Trace of Precipitation, MM = Missing Value Source: NWS Daily Summary

Daily Weather History Graph

Daily Weather History Graph

Search for Another Location

Airport or City:

Astronomy

Oct. 29, 2019 Rise Set
Actual Time 7:34 AM PDT 6:14 PM PDT
Civil Twilight 7:07 AM PDT 6:42 PM PDT
Nautical Twilight 6:35 AM PDT 7:13 PM PDT
Astronomical Twilight 6:05 AM PDT 7:44 PM PDT
Moon 9:13 AM PDT (10/29) 7:44 PM PDT (10/29)
Length of Visible Light 11h 35m
Length of Day
10h 40m
Waxing Crescent, 4% of the Moon is Illuminated
Oct 29
Waxing Crescent
Nov 4
First Quarter
Nov 12
Full
Nov 19
Last Quarter
Nov 26
New

Hourly Weather History & Observations

Time (PDT) Temp. Windchill Dew Point Humidity Pressure Visibility Wind Dir Wind Speed Gust Speed Precip Events Conditions
12:53 AM 39.0 °F 36.8 °F 28.0 °F 65% 29.98 in 8.0 mi West 3.5 mph - N/A   Smoke
1:53 AM 36.0 °F - 27.0 °F 70% 29.97 in 8.0 mi Calm Calm - N/A   Smoke
2:53 AM 37.0 °F - 27.0 °F 67% 29.96 in 8.0 mi Calm Calm - N/A   Smoke
3:53 AM 34.0 °F - 28.0 °F 79% 29.94 in 8.0 mi Calm Calm - N/A   Smoke
4:53 AM 35.1 °F - 28.9 °F 78% 29.94 in 7.0 mi Calm Calm - N/A   Smoke
5:53 AM 35.1 °F - 28.9 °F 78% 29.94 in 7.0 mi Calm Calm - N/A   Smoke
6:53 AM 33.1 °F - 28.0 °F 82% 29.95 in 7.0 mi Calm Calm - N/A   Smoke
7:53 AM 34.0 °F - 28.0 °F 79% 29.96 in 6.0 mi Calm Calm - N/A   Smoke
8:53 AM 37.0 °F - 30.9 °F 79% 29.98 in 6.0 mi Calm Calm - N/A   Smoke
9:40 AM 44.1 °F - 28.9 °F 55% 29.99 in 2.0 mi Calm Calm - N/A   Smoke
9:49 AM 44.6 °F - 28.4 °F 53% 29.99 in 1.5 mi Calm Calm - N/A   Smoke
9:53 AM 45.0 °F - 28.0 °F 52% 29.98 in 1.5 mi Calm Calm - N/A   Smoke
10:26 AM 50.0 °F - 28.0 °F 43% 29.99 in 2.0 mi Calm Calm - N/A   Smoke
10:53 AM 54.0 °F - 27.0 °F 35% 29.97 in 2.5 mi Calm Calm - N/A   Smoke
11:33 AM 57.9 °F - 30.9 °F 36% 29.98 in 3.0 mi SSW 3.5 mph - N/A   Smoke
11:53 AM 60.1 °F - 33.1 °F 36% 29.96 in 4.0 mi Variable 3.5 mph - N/A   Smoke
12:53 PM 66.0 °F - 28.9 °F 25% 29.94 in 5.0 mi Calm Calm - N/A   Smoke
1:53 PM 71.1 °F - 24.1 °F 17% 29.91 in 4.0 mi Variable 3.5 mph - N/A   Smoke
2:53 PM 75.0 °F - 18.0 °F 12% 29.90 in 6.0 mi NNE 10.4 mph - N/A   Smoke
3:53 PM 73.9 °F - 12.9 °F 10% 29.90 in 8.0 mi NE 16.1 mph 19.6 mph N/A   Smoke
4:53 PM 71.1 °F - 5.0 °F 8% 29.91 in 10.0 mi NNE 10.4 mph - N/A   Smoke
5:53 PM 64.0 °F - 8.1 °F 11% 29.90 in 7.0 mi North 8.1 mph - N/A   Smoke
6:53 PM 61.0 °F - 10.9 °F 14% 29.91 in 8.0 mi NNE 6.9 mph - N/A   Smoke
7:53 PM 60.1 °F - 8.1 °F 13% 29.92 in 8.0 mi NNE 5.8 mph - N/A   Smoke
8:53 PM 62.1 °F - 3.9 °F 10% 29.93 in 9.0 mi NNE 12.7 mph 20.7 mph N/A   Smoke
9:53 PM 50.0 °F - 12.0 °F 22% 29.95 in 9.0 mi NE 8.1 mph - N/A   Smoke
10:53 PM 42.1 °F 40.2 °F 18.0 °F 38% 29.96 in 10.0 mi ESE 3.5 mph - N/A   Smoke
11:53 PM 42.1 °F 37.7 °F 18.0 °F 38% 29.98 in 10.0 mi ENE 6.9 mph - N/A   Smoke